CW6823 Weather Reports


time (UTC)temp
C
wind
direction
speed
KPH
gust
KPH
rain 1hr
cm
rain 24hr
cm
rain mn
cm
humidity
%
barometer
mb
20260906204005 37 169 9.7 20.9 0.00 0.00 0.00 36 830.3
20260906203505 38 202 11.3 20.9 0.00 0.00 0.00 34 830.4
20260906203005 38 214 8.0 16.1 0.00 0.00 0.00 35 830.4
20260906202505 38 221 8.0 25.7 0.00 0.00 0.00 35 830.4
20260906202004 38 212 4.8 11.3 0.00 0.00 0.00 35 830.4
20260906201505 37 229 1.6 1.6 0.00 0.00 0.00 35 830.5
20260906200505 37 227 4.8 9.7 0.00 0.00 0.00 36 830.3
20260906200006 37 215 3.2 6.4 0.00 0.00 0.00 36 830.4
20260906195505 37 215 8.0 14.5 0.00 0.00 0.00 35 830.4
20260906195005 37 214 4.8 8.0 0.00 0.00 0.00 36 830.4
20260906194504 37 207 14.5 17.7 0.00 0.00 0.00 36 830.4
20260906194005 37 239 9.7 19.3 0.00 0.00 0.00 35 830.4
20260906193505 37 242 11.3 24.1 0.00 0.00 0.00 36 830.4
20260906192505 37 170 8.0 14.5 0.00 0.00 0.00 37 830.3
20260906192005 37 232 12.9 22.5 0.00 0.00 0.00 35 830.4
20260906191505 37 229 14.5 19.3 0.00 0.00 0.00 36 830.4
20260906191005 37 238 14.5 19.3 0.00 0.00 0.00 36 830.4
20260906190504 37 225 14.5 19.3 0.00 0.00 0.00 37 830.3
20260906184505 36 185 9.7 16.1 0.00 0.00 0.00 38 830.2
20260906184005 36 201 4.8 12.9 0.00 0.00 0.00 38 830.3
20260906183504 36 155 11.3 35.4 0.00 0.00 0.00 38 830.2
20260906183006 35 157 14.5 27.4 0.00 0.00 0.00 39 830.2
20260906182504 35 163 14.5 29.0 0.00 0.00 0.00 41 830.1
20260906182005 35 159 16.1 46.7 0.00 0.00 0.00 41 830.1
20260906180505 36 253 6.4 9.7 0.00 0.00 0.00 40 830.2
20260906175504 35 132 8.0 12.9 0.00 0.00 0.00 41 830.1
20260906175006 35 111 8.0 11.3 0.00 0.00 0.00 41 830.1
20260906174505 35 109 9.7 16.1 0.00 0.00 0.00 42 830.1
20260906174006 35 163 6.4 11.3 0.00 0.00 0.00 43 830.1
20260906173005 35 166 11.3 14.5 0.00 0.00 0.00 42 830.1
20260906172504 35 193 14.5 19.3 0.00 0.00 0.00 41 830.1
20260906172006 35 191 11.3 16.1 0.00 0.00 0.00 41 830.1
20260906171005 35 159 8.0 16.1 0.00 0.00 0.00 42 830.2
20260906170504 35 178 16.1 20.9 0.00 0.00 0.00 41 830.2
20260906170005 35 176 17.7 20.9 0.00 0.00 0.00 42 830.2
20260906165504 35 185 12.9 20.9 0.00 0.00 0.00 43 830.1
20260906165005 35 163 11.3 19.3 0.00 0.00 0.00 44 830.1
20260906164504 35 144 8.0 11.3 0.00 0.00 0.00 44 830.1
20260906164005 34 145 6.4 12.9 0.00 0.00 0.00 44 830.1
20260906163505 34 149 11.3 16.1 0.00 0.00 0.00 44 830.0
20260906163005 35 185 12.9 17.7 0.00 0.00 0.00 45 830.1
20260906162504 34 185 12.9 17.7 0.00 0.00 0.00 45 830.1
20260906162005 34 183 14.5 20.9 0.00 0.00 0.00 46 830.0
20260906161005 33 178 14.5 19.3 0.00 0.00 0.00 46 830.0
20260906160504 33 179 12.9 17.7 0.00 0.00 0.00 46 830.0
20260906160005 33 178 11.3 14.5 0.00 0.00 0.00 47 830.0
20260906155505 33 183 11.3 16.1 0.00 0.00 0.00 49 829.9
20260906154505 33 224 12.9 16.1 0.00 0.00 0.00 50 829.9
20260906154004 32 226 11.3 16.1 0.00 0.00 0.00 49 829.9
20260906153504 32 223 11.3 16.1 0.00 0.00 0.00 50 829.9
20260906153005 32 238 9.7 14.5 0.00 0.00 0.00 51 829.9
20260906152506 32 239 9.7 12.9 0.00 0.00 0.00 51 829.8
20260906152005 32 247 11.3 14.5 0.00 0.00 0.00 52 829.8
20260906151505 31 268 8.0 16.1 0.00 0.00 0.00 52 829.8
20260906151004 31 252 11.3 14.5 0.00 0.00 0.00 54 829.7
20260906150504 31 252 6.4 11.3 0.00 0.00 0.00 54 829.7
20260906150005 31 246 4.8 8.0 0.00 0.00 0.00 54 829.7
20260906145505 31 255 4.8 9.7 0.00 0.00 0.00 55 829.7
20260906145005 31 240 6.4 12.9 0.00 0.00 0.00 55 829.7
20260906144505 31 245 4.8 6.4 0.00 0.00 0.00 55 829.7
20260906144005 30 247 4.8 6.4 0.00 0.00 0.00 56 829.6
20260906143004 30 248 4.8 6.4 0.00 0.00 0.00 57 829.6
20260906142506 30 228 4.8 6.4 0.00 0.00 0.00 57 829.6
20260906142005 30 226 6.4 17.7 0.00 0.00 0.00 58 829.6
20260906141505 30 217 4.8 6.4 0.00 0.00 0.00 58 829.5
20260906140005 29 179 4.8 6.4 0.00 0.00 0.00 60 829.4
20260906135505 28 204 4.8 8.0 0.00 0.00 0.00 60 829.4
20260906135005 28 182 4.8 8.0 0.00 0.00 0.00 61 829.4
20260906134506 28 177 4.8 8.0 0.00 0.00 0.00 61 829.4
20260906134004 28 186 4.8 6.4 0.00 0.00 0.00 61 829.4
20260906133505 28 197 4.8 6.4 0.00 0.00 0.00 62 829.3
20260906133005 28 199 3.2 4.8 0.00 0.00 0.00 61 829.3
20260906132506 28 181 3.2 3.2 0.00 0.00 0.00 62 829.3
20260906131505 27 199 1.6 1.6 0.00 0.00 0.00 64 829.3
20260906131005 26 184 1.6 1.6 0.00 0.00 0.00 65 829.2
20260906130505 26 198 1.6 1.6 0.00 0.00 0.00 67 829.1
20260906130005 26 221 0.0 1.6 0.00 0.00 0.00 69 829.1
20260906125505 25 225 0.0 0.0 0.00 0.00 0.00 70 829.0
20260906125005 25 258 0.0 0.0 0.00 0.00 0.00 71 829.0
20260906124505 25 265 0.0 0.0 0.00 0.00 0.00 71 829.0
20260906124004 25 186 1.6 1.6 0.00 0.00 0.00 71 828.9
20260906123506 25 202 1.6 3.2 0.00 0.00 0.00 71 828.9
20260906123005 25 171 1.6 3.2 0.00 0.00 0.00 71 828.9
20260906122505 25 196 1.6 3.2 0.00 0.00 0.00 72 828.9
20260906122004 25 201 1.6 3.2 0.00 0.00 0.00 72 828.9
20260906121506 25 214 1.6 1.6 0.00 0.00 0.00 72 828.9
20260906121005 25 173 3.2 3.2 0.00 0.00 0.00 71 828.9
20260906120005 25 183 3.2 3.2 0.00 0.00 0.00 71 828.9
20260906115505 25 177 3.2 4.8 0.00 0.00 0.00 71 828.9
20260906115004 25 202 3.2 3.2 0.00 0.00 0.00 71 828.9
20260906114505 25 174 3.2 3.2 0.00 0.00 0.00 71 828.9
20260906113505 25 226 1.6 3.2 0.00 0.00 0.00 71 828.9
20260906113004 25 182 3.2 3.2 0.00 0.00 0.00 70 828.9
20260906112505 25 199 3.2 3.2 0.00 0.00 0.00 70 828.9
20260906112004 25 177 1.6 4.8 0.00 0.00 0.00 70 828.9
20260906111004 25 164 3.2 3.2 0.00 0.00 0.00 70 829.0
20260906110505 25 165 4.8 4.8 0.00 0.00 0.00 70 829.0
20260906110004 25 200 3.2 3.2 0.00 0.00 0.00 70 829.0
20260906105505 25 160 4.8 4.8 0.00 0.00 0.00 70 829.0
20260906105005 25 174 3.2 4.8 0.00 0.00 0.00 70 829.0
20260906104505 25 169 3.2 3.2 0.00 0.00 0.00 70 829.0
20260906104004 25 163 3.2 3.2 0.00 0.00 0.00 69 829.0
20260906103505 25 184 4.8 6.4 0.00 0.00 0.00 69 829.0
20260906102505 25 172 4.8 4.8 0.00 0.00 0.00 68 829.0
20260906102004 25 219 3.2 4.8 0.00 0.00 0.00 68 829.0
20260906101506 25 170 3.2 4.8 0.00 0.00 0.00 68 829.0
20260906101004 25 171 3.2 3.2 0.00 0.00 0.00 69 829.0
20260906100505 25 201 3.2 4.8 0.00 0.00 0.00 69 829.0
20260906095505 26 204 1.6 3.2 0.00 0.00 0.00 67 829.0
20260906095004 26 214 3.2 3.2 0.00 0.00 0.00 67 829.0
20260906094505 26 178 1.6 3.2 0.00 0.00 0.00 66 829.0
20260906094005 26 186 1.6 3.2 0.00 0.00 0.00 66 829.0
20260906093505 26 187 1.6 3.2 0.00 0.00 0.00 66 829.1
20260906093004 26 175 4.8 6.4 0.00 0.00 0.00 66 829.0
20260906092004 26 174 3.2 3.2 0.00 0.00 0.00 65 829.1
20260906091506 26 170 4.8 4.8 0.00 0.00 0.00 65 829.1
20260906091004 26 164 4.8 4.8 0.00 0.00 0.00 64 829.1
20260906090505 26 170 4.8 4.8 0.00 0.00 0.00 64 829.1
20260906090005 26 182 1.6 3.2 0.00 0.00 0.00 64 829.1
20260906085505 26 165 3.2 4.8 0.00 0.00 0.00 64 829.1
20260906085004 26 196 3.2 3.2 0.00 0.00 0.00 65 829.1
20260906084505 26 166 3.2 3.2 0.00 0.00 0.00 65 829.0
20260906084005 26 179 1.6 1.6 0.00 0.00 0.00 66 829.0
20260906083005 25 165 3.2 4.8 0.00 0.00 0.00 67 829.0
20260906082506 25 225 3.2 3.2 0.00 0.00 0.00 66 829.0
20260906082005 25 199 1.6 3.2 0.00 0.00 0.00 67 829.0
20260906081505 25 200 1.6 3.2 0.00 0.00 0.00 67 829.0
20260906081004 25 155 3.2 4.8 0.00 0.00 0.00 68 828.9
20260906080506 25 319 0.0 0.0 0.00 0.00 0.00 68 828.9
20260906080004 25 177 1.6 3.2 0.00 0.00 0.00 69 828.9
20260906075505 25 157 1.6 3.2 0.00 0.00 0.00 68 828.9
20260906075005 25 152 1.6 1.6 0.00 0.00 0.00 68 829.0
20260906074506 26 0 0.0 0.0 0.00 0.00 0.00 67 829.0
20260906073505 26 66 0.0 0.0 0.00 0.00 0.00 65 829.0
20260906072505 26 158 4.8 4.8 0.00 0.00 0.00 62 829.1
20260906072005 26 171 3.2 3.2 0.00 0.00 0.00 61 829.1
20260906071506 27 167 4.8 4.8 0.00 0.00 0.00 61 829.1
20260906071005 27 182 3.2 4.8 0.00 0.00 0.00 61 829.1
20260906065505 27 164 6.4 8.0 0.00 0.00 0.00 59 829.2
20260906065004 27 190 3.2 4.8 0.00 0.00 0.00 59 829.2
20260906064506 27 173 4.8 4.8 0.00 0.00 0.00 59 829.2
20260906064005 27 184 4.8 6.4 0.00 0.00 0.00 59 829.2
20260906063505 27 197 3.2 4.8 0.00 0.00 0.00 59 829.2
20260906063004 27 183 3.2 3.2 0.00 0.00 0.00 58 829.2
20260906062505 27 184 3.2 3.2 0.00 0.00 0.00 58 829.2
20260906062004 27 201 3.2 3.2 0.00 0.00 0.00 58 829.2
20260906061506 27 208 3.2 3.2 0.00 0.00 0.00 57 829.2
20260906061004 28 195 3.2 4.8 0.00 0.00 0.00 57 829.2
20260906060506 28 196 3.2 4.8 0.00 0.00 0.00 57 829.2
20260906060004 28 194 3.2 4.8 0.00 0.00 0.00 57 829.3
20260906055505 28 190 3.2 4.8 0.00 0.00 0.00 57 829.3
20260906054505 28 209 3.2 3.2 0.00 0.00 0.00 56 829.3
20260906054004 28 206 3.2 4.8 0.00 0.00 0.00 55 829.3
20260906053506 28 197 3.2 3.2 0.00 0.00 0.00 55 829.3
20260906053004 28 222 3.2 3.2 0.00 0.00 0.00 55 829.3
20260906052505 28 209 3.2 4.8 0.00 0.00 0.00 55 829.3
20260906052004 28 202 3.2 4.8 0.00 0.00 0.00 55 829.3
20260906051505 28 184 4.8 6.4 0.00 0.00 0.00 55 829.3
20260906051004 28 211 3.2 3.2 0.00 0.00 0.00 55 829.3
20260906050505 28 194 4.8 6.4 0.00 0.00 0.00 55 829.3
20260906050010 28 193 3.2 4.8 0.00 0.00 0.00 55 829.3
20260906045505 28 184 4.8 4.8 0.00 0.00 0.00 55 829.3
20260906045004 28 174 4.8 6.4 0.00 0.00 0.00 55 829.3
20260906044505 28 195 3.2 3.2 0.00 0.00 0.00 55 829.3
20260906044004 28 200 3.2 3.2 0.00 0.00 0.00 54 829.3
20260906043004 28 206 1.6 3.2 0.00 0.00 0.00 54 829.4
20260906042504 29 196 1.6 3.2 0.00 0.00 0.00 54 829.4
20260906042004 29 190 3.2 3.2 0.00 0.00 0.00 54 829.4
20260906040506 29 192 3.2 4.8 0.00 0.00 0.00 52 829.4
20260906040005 30 198 1.6 3.2 0.00 0.00 0.00 52 829.4
20260906035505 30 198 3.2 4.8 0.00 0.00 0.00 52 829.4
20260906035005 30 199 1.6 3.2 0.00 0.00 0.00 51 829.5
20260906034505 30 195 3.2 4.8 0.00 0.00 0.00 51 829.5
20260906034005 30 200 3.2 4.8 0.00 0.00 0.00 51 829.5
20260906033504 30 202 3.2 4.8 0.00 0.00 0.00 51 829.5
20260906033005 30 199 3.2 6.4 0.00 0.00 0.00 51 829.5
20260906032504 30 192 3.2 3.2 0.00 0.00 0.00 51 829.5
20260906032005 30 195 1.6 3.2 0.00 0.00 0.00 51 829.5
20260906031505 30 198 3.2 3.2 0.00 0.00 0.00 50 829.5
20260906031005 30 206 1.6 3.2 0.00 0.00 0.00 50 829.5
20260906030504 30 196 3.2 3.2 0.00 0.00 0.00 49 829.5
20260906030005 30 184 3.2 4.8 0.00 0.00 0.00 49 829.5
20260906025505 30 179 4.8 6.4 0.00 0.00 0.00 49 829.6
20260906025006 30 179 4.8 6.4 0.00 0.00 0.00 49 829.5
20260906024005 30 186 3.2 6.4 0.00 0.00 0.00 50 829.5
20260906023505 30 200 1.6 4.8 0.00 0.00 0.00 49 829.5
20260906023006 30 181 4.8 6.4 0.00 0.00 0.00 48 829.5
20260906022505 31 177 4.8 6.4 0.00 0.00 0.00 48 829.6
20260906021504 31 186 3.2 6.4 0.00 0.00 0.00 48 829.6
20260906020504 31 207 1.6 3.2 0.00 0.00 0.00 48 829.6
20260906020005 31 226 1.6 4.8 0.00 0.00 0.00 48 829.6
20260906015005 31 245 4.8 8.0 0.00 0.00 0.00 47 829.6
20260906014505 31 228 3.2 4.8 0.00 0.00 0.00 48 829.6
20260906014005 31 256 1.6 8.0 0.00 0.00 0.00 48 829.6
20260906013504 31 242 3.2 4.8 0.00 0.00 0.00 47 829.6
20260906013005 32 218 4.8 8.0 0.00 0.00 0.00 47 829.7
20260906012504 32 213 4.8 6.4 0.00 0.00 0.00 45 829.7
20260906012005 32 215 4.8 6.4 0.00 0.00 0.00 44 829.7
20260906011005 33 216 4.8 6.4 0.00 0.00 0.00 43 829.8
20260906010505 33 219 3.2 8.0 0.00 0.00 0.00 42 829.8
20260906010005 33 204 4.8 6.4 0.00 0.00 0.00 41 829.9
20260906005504 34 185 4.8 9.7 0.00 0.00 0.00 40 829.9
20260906004504 35 169 12.9 17.7 0.00 0.00 0.00 38 830.0
20260906003504 35 171 12.9 16.1 0.00 0.00 0.00 37 830.0
20260906003005 35 171 12.9 16.1 0.00 0.00 0.00 37 830.1
20260906002504 36 170 12.9 17.7 0.00 0.00 0.00 36 830.1
20260906002006 36 171 12.9 16.1 0.00 0.00 0.00 36 830.1
20260906001504 36 171 14.5 17.7 0.00 0.00 0.00 35 830.2
20260906001005 36 169 12.9 14.5 0.00 0.00 0.00 35 830.2
20260906000504 36 167 14.5 16.1 0.00 0.00 0.00 35 830.2
20260905235504 36 169 12.9 14.5 0.00 0.00 0.00 35 830.2
20260905235005 36 168 11.3 16.1 0.00 0.00 0.00 34 830.2
20260905234504 36 170 11.3 12.9 0.00 0.00 0.00 34 830.2
20260905234005 36 170 11.3 22.5 0.00 0.00 0.00 34 830.2
20260905233504 36 170 11.3 17.7 0.00 0.00 0.00 34 830.2
20260905232506 36 168 12.9 20.9 0.00 0.00 0.00 35 830.2
20260905232005 36 171 9.7 12.9 0.00 0.00 0.00 35 830.2
20260905231505 36 164 9.7 14.5 0.00 0.00 0.00 35 830.2
20260905231005 37 167 8.0 17.7 0.00 0.00 0.00 34 830.3
20260905230505 36 157 19.3 25.7 0.00 0.00 0.00 35 830.2
20260905230005 37 143 20.9 38.6 0.00 0.00 0.00 35 830.3
20260905225506 37 143 22.5 32.2 0.00 0.00 0.00 35 830.3
20260905225004 36 155 22.5 46.7 0.00 0.00 0.00 35 830.3
20260905224005 36 129 16.1 45.1 0.00 0.00 0.00 35 830.3
20260905223005 36 212 6.4 11.3 0.00 0.00 0.00 36 830.3
20260905222505 36 209 6.4 9.7 0.00 0.00 0.00 36 830.2
20260905221505 36 211 6.4 9.7 0.00 0.00 0.00 37 830.2
20260905220505 37 166 4.8 9.7 0.00 0.00 0.00 35 830.4
20260905220005 37 182 8.0 25.7 0.00 0.00 0.00 35 830.3
20260905215506 36 227 3.2 4.8 0.00 0.00 0.00 35 830.3
20260905215004 36 200 4.8 16.1 0.00 0.00 0.00 36 830.3
20260905214505 36 194 6.4 12.9 0.00 0.00 0.00 37 830.3
20260905214004 37 225 3.2 4.8 0.00 0.00 0.00 36 830.3
20260905213004 37 195 14.5 19.3 0.00 0.00 0.00 36 830.3
20260905212505 36 162 11.3 19.3 0.00 0.00 0.00 36 830.3
20260905212004 36 141 8.0 17.7 0.00 0.00 0.00 36 830.3
20260905211004 36 131 11.3 16.1 0.00 0.00 0.00 36 830.2
20260905210505 36 190 8.0 16.1 0.00 0.00 0.00 37 830.2
20260905210005 37 219 9.7 16.1 0.00 0.00 0.00 35 830.3
20260905205505 37 214 8.0 14.5 0.00 0.00 0.00 35 830.3
20260905205005 37 214 9.7 14.5 0.00 0.00 0.00 36 830.3
20260905204506 37 196 12.9 17.7 0.00 0.00 0.00 36 830.3